TimeMST,TemperatureF,Dew PointF,Humidity,Sea Level PressureIn,VisibilityMPH,Wind Direction,Wind SpeedMPH,Gust SpeedMPH,PrecipitationIn,Events,Conditions,WindDirDegrees,DateUTC
12:52 AM,-8.0,-11.9,83,30.73,10.0,Calm,Calm,-,N/A,,Clear,0,2013-01-18 07:52:00
1:52 AM,-8.0,-14.1,75,30.73,10.0,Calm,Calm,-,N/A,,Clear,0,2013-01-18 08:52:00
2:52 AM,-9.9,-15.0,78,30.72,10.0,Calm,Calm,-,N/A,,Clear,0,2013-01-18 09:52:00
3:52 AM,-11.0,-15.0,83,30.72,7.0,North,3.5,-,N/A,,Clear,10,2013-01-18 10:52:00
4:28 AM,-11.2,-16.6,77,30.40,4.0,North,3.5,-,N/A,,Scattered Clouds,10,2013-01-18 11:28:00
4:40 AM,-11.2,-14.8,84,30.40,5.0,Calm,Calm,-,N/A,,Mostly Cloudy,0,2013-01-18 11:40:00
4:52 AM,-11.9,-16.1,82,30.74,5.0,Calm,Calm,-,N/A,,Overcast,0,2013-01-18 11:52:00
5:48 AM,-11.2,-16.6,77,30.39,1.2,WNW,3.5,-,N/A,,Overcast,290,2013-01-18 12:48:00
5:52 AM,-11.9,-15.0,86,30.78,0.5,Calm,Calm,-,N/A,Fog,Light Freezing Fog,0,2013-01-18 12:52:00
6:17 AM,-11.2,-14.8,84,30.39,2.0,Calm,Calm,-,N/A,,Overcast,0,2013-01-18 13:17:00
6:30 AM,-13.0,-16.6,84,30.40,0.8,Calm,Calm,-,N/A,,Overcast,0,2013-01-18 13:30:00
6:48 AM,-13.0,-18.4,77,30.40,2.0,Calm,Calm,-,N/A,,Haze,0,2013-01-18 13:48:00
6:49 AM,-13.0,-18.9,75,30.82,2.0,East,3.5,-,N/A,,Haze,100,2013-01-18 13:49:00
7:00 AM,-11.2,-16.6,77,30.41,0.8,East,3.5,-,N/A,,Haze,90,2013-01-18 14:00:00
7:52 AM,-9.9,-11.0,95,30.84,0.2,Calm,Calm,-,N/A,Fog,Light Freezing Fog,0,2013-01-18 14:52:00
8:52 AM,-2.0,-6.0,83,30.84,0.2,Calm,Calm,-,N/A,Fog,Light Freezing Fog,0,2013-01-18 15:52:00
9:16 AM,-0.4,-4.0,85,30.43,2.0,Calm,Calm,-,N/A,,Overcast,0,2013-01-18 16:16:00
9:24 AM,1.4,-2.2,85,30.43,5.0,Calm,Calm,-,N/A,,Overcast,0,2013-01-18 16:24:00
9:44 AM,1.4,-0.4,92,30.44,7.0,Calm,Calm,-,N/A,,Scattered Clouds,0,2013-01-18 16:44:00
9:52 AM,3.0,-0.0,87,30.83,7.0,Calm,Calm,-,N/A,,Scattered Clouds,0,2013-01-18 16:52:00
10:52 AM,9.0,3.0,77,30.77,10.0,West,3.5,-,N/A,,Clear,260,2013-01-18 17:52:00
11:52 AM,17.1,6.1,62,30.68,10.0,WNW,3.5,-,N/A,,Clear,300,2013-01-18 18:52:00
12:52 PM,21.0,8.1,57,30.62,10.0,NW,3.5,-,N/A,,Clear,320,2013-01-18 19:52:00
1:52 PM,23.0,10.0,58,30.59,10.0,Calm,Calm,-,N/A,,Clear,0,2013-01-18 20:52:00
2:52 PM,23.0,10.0,58,30.58,10.0,Calm,Calm,-,N/A,,Clear,0,2013-01-18 21:52:00
3:52 PM,24.1,10.9,57,30.58,10.0,Calm,Calm,-,N/A,,Clear,0,2013-01-18 22:52:00
4:52 PM,21.0,10.0,63,30.60,10.0,NNW,4.6,-,N/A,,Clear,340,2013-01-18 23:52:00
5:52 PM,10.0,5.0,80,30.69,10.0,NE,4.6,-,N/A,,Clear,40,2013-01-19 00:52:00
6:52 PM,10.0,6.1,84,30.70,10.0,NNW,4.6,-,N/A,,Clear,340,2013-01-19 01:52:00
7:52 PM,-0.0,-4.0,83,30.74,10.0,WNW,5.8,-,N/A,,Clear,290,2013-01-19 02:52:00
8:52 PM,-6.0,-9.0,87,30.74,9.0,Calm,Calm,-,N/A,,Clear,0,2013-01-19 03:52:00
9:02 PM,-7.6,-11.2,84,30.31,10.0,West,4.6,-,N/A,,Scattered Clouds,280,2013-01-19 04:02:00
9:11 PM,-7.6,-11.2,84,30.31,10.0,Calm,Calm,-,N/A,,Mostly Cloudy,0,2013-01-19 04:11:00
9:52 PM,-8.0,-13.0,79,30.72,9.0,Calm,Calm,-,N/A,,Scattered Clouds,0,2013-01-19 04:52:00
10:17 PM,-7.6,-9.4,92,30.31,5.0,Calm,Calm,-,N/A,,Mostly Cloudy,0,2013-01-19 05:17:00
10:22 PM,-5.8,-9.4,84,30.31,0.8,Calm,Calm,-,N/A,,Mist,0,2013-01-19 05:22:00
10:52 PM,-5.1,-9.0,83,30.65,0.2,Calm,Calm,-,N/A,Fog,Light Freezing Fog,0,2013-01-19 05:52:00
11:52 PM,-5.1,-11.0,76,30.61,0.5,Calm,Calm,-,N/A,,Haze,0,2013-01-19 06:52:00